Theta_e
346 352 353 349 345 349 355 351 346 344 343 345 345 345 345 346 346 347 342 347 342 337 337 337 338 338 338 340 340 342 342 341 337 335 336 338 339 340 340 341 341 341 341 340 339 339 337 337 336
346 350 352 343 347 352 352 347 346 344 345 345 345 345 345 347 348 349 347 349 345 342 339 337 339 340 339 340 339 338 339 341 339 336 335 334 335 336 338 342 342 340 339 339 339 334 331 332 334
348 349 348 345 348 351 351 350 345 342 344 345 346 346 345 346 346 347 348 348 346 343 340 339 339 340 338 338 338 336 336 339 339 337 335 332 337 341 341 342 339 339 339 341 336 332 332 332 337
349 351 346 349 348 346 347 347 347 344 345 344 343 344 344 345 345 346 347 347 345 344 341 341 339 339 339 339 339 339 338 338 339 338 335 334 335 341 341 338 337 337 336 335 335 332 330 330 337
349 350 350 349 349 347 343 346 348 344 345 344 342 345 345 344 344 345 345 344 344 344 345 342 340 339 340 340 340 340 340 339 337 339 337 334 338 341 339 338 337 339 338 335 333 335 334 329 336
348 347 353 350 350 345 343 346 348 345 345 344 344 345 345 346 345 345 344 343 341 340 341 340 339 340 340 340 340 340 338 335 339 339 338 336 341 337 335 337 340 340 336 335 337 337 335 334 337
348 349 349 351 350 348 345 344 347 344 345 345 344 345 345 345 345 344 343 342 339 339 340 342 343 342 340 340 341 340 337 339 342 340 337 341 337 337 340 340 340 337 335 338 339 337 336 335 337
344 345 349 350 350 349 347 348 347 342 342 344 343 345 344 345 344 343 343 340 339 340 340 342 344 344 341 341 341 341 337 341 342 339 339 336 335 340 341 339 336 336 337 339 338 336 337 339 342
343 344 347 350 350 347 344 346 344 342 344 344 344 343 344 344 343 344 342 340 340 340 341 341 341 341 341 341 341 341 339 340 342 341 336 335 338 340 338 337 335 337 338 340 339 339 339 338 339
342 343 345 347 344 346 346 349 348 342 342 345 344 345 344 343 344 344 340 341 340 339 339 340 339 340 341 343 341 340 339 340 341 337 337 338 339 340 337 338 338 337 338 341 343 338 337 337 336
348 351 345 347 342 342 347 347 342 342 343 345 345 345 344 344 344 341 339 342 340 337 338 337 338 337 340 341 342 341 341 340 340 338 341 342 340 337 336 337 336 336 340 341 342 342 336 339 342
348 350 347 350 347 344 346 346 344 342 341 343 344 345 345 345 344 341 340 343 340 341 339 340 339 337 339 339 337 336 338 339 337 343 341 337 337 337 337 336 338 339 345 344 345 345 339 341 344
348 348 347 349 347 346 346 346 347 343 341 342 345 344 344 345 343 341 341 342 340 341 337 338 339 337 335 336 338 339 336 337 342 342 344 343 343 342 342 341 344 345 342 343 346 345 337 342 344
346 347 347 346 345 346 344 345 345 344 343 340 343 344 344 345 343 342 343 343 340 340 340 339 341 341 336 336 336 340 339 340 342 343 343 344 343 344 343 344 345 345 344 345 346 347 346 345 345
342 346 345 344 343 346 343 346 345 341 343 341 340 340 343 343 343 342 341 341 341 341 339 340 337 343 343 341 342 340 340 342 340 342 344 343 343 346 342 345 344 342 343 345 345 345 348 346 345
340 346 351 346 345 345 342 349 342 342 343 343 344 342 341 341 342 342 341 341 342 343 343 333 335 343 341 342 342 342 342 342 342 339 343 345 345 345 345 347 346 342 344 347 345 336 344 341 344
345 350 351 349 345 345 342 347 343 340 342 343 345 341 341 340 342 342 342 342 342 343 341 338 335 340 341 341 343 343 343 343 342 341 341 344 343 346 347 346 348 343 346 345 343 348 345 346 344
344 344 348 347 348 345 344 344 343 340 340 343 344 341 341 341 343 343 343 342 341 342 339 341 340 336 337 344 343 342 344 344 344 342 340 343 343 345 346 347 346 345 346 346 346 347 345 345 346
338 341 349 347 346 346 344 347 343 341 341 342 344 344 341 342 344 343 343 343 342 343 340 344 343 339 342 341 342 342 343 344 341 343 344 341 342 343 342 344 344 346 350 349 347 347 348 345 339
339 341 348 345 348 348 348 351 345 341 340 342 342 344 343 341 342 343 344 343 343 343 340 341 345 343 341 339 341 341 342 342 343 342 343 344 341 339 341 346 339 343 348 345 346 349 345 342 341
338 338 343 347 348 343 347 346 337 341 341 341 342 341 343 342 343 343 343 343 343 343 341 341 344 343 342 340 342 341 343 343 342 343 344 342 337 337 345 348 345 344 341 344 344 347 343 333 334
337 336 342 349 350 350 345 346 344 340 346 344 341 342 344 344 344 344 343 343 344 344 342 341 342 341 341 340 343 342 341 341 344 341 341 340 343 334 336 346 347 341 347 345 342 344 343 344 344
323 336 339 351 350 344 347 341 341 341 343 345 343 343 344 345 343 343 343 343 344 344 344 342 342 341 342 343 342 343 344 343 344 342 344 344 339 335 338 339 343 348 346 345 347 346 340 341 348
324 330 334 336 338 341 338 342 343 343 343 343 343 343 343 344 344 343 342 339 343 346 346 345 344 344 344 343 342 344 341 343 345 344 343 344 344 336 337 341 339 344 344 342 339 346 341 339 340
324 326 334 335 335 334 332 340 339 339 338 340 339 344 343 344 344 343 340 339 344 343 346 344 345 346 345 343 339 344 343 344 343 345 346 344 345 344 338 343 339 341 343 343 342 341 340 343 339
322 322 330 336 340 336 334 341 337 340 340 341 341 344 345 344 344 343 341 339 341 342 346 345 346 347 346 341 338 344 343 341 343 344 346 344 346 344 345 341 342 341 340 341 342 341 341 341 341
326 326 324 330 332 336 340 338 339 342 340 339 338 343 344 345 345 344 341 341 341 342 345 345 347 347 347 342 339 342 345 343 342 342 345 345 346 345 347 346 344 343 340 339 339 338 339 341 343
326 325 329 325 335 342 343 342 339 338 343 340 341 341 344 346 346 345 345 342 340 339 341 341 340 345 347 346 338 340 340 343 340 342 345 346 346 347 347 347 348 347 345 345 344 339 337 343 348
324 323 321 321 330 338 345 343 335 336 341 343 342 343 345 346 346 346 346 343 342 339 339 340 344 346 347 348 339 339 339 339 340 341 343 344 345 344 345 345 346 346 346 345 345 340 343 346 348
323 322 318 323 328 332 334 336 335 341 341 341 341 343 340 344 346 346 346 345 343 342 344 342 341 343 345 349 344 340 341 344 341 338 341 345 342 344 344 342 343 340 345 344 346 346 345 344 346
Wind_Speed
2 4 3 4 4 3 3 2 4 6 5 15 21 17 11 14 3 3 15 14 13 15 14 13 12 13 14 14 14 14 13 12 12 12 12 12 11 11 10 9 10 11 13 13 13 12 14 12 11
5 4 6 4 4 3 5 8 13 15 22 32 26 20 16 6 10 16 20 13 11 12 15 15 14 13 14 15 15 13 12 11 11 12 12 11 9 8 8 12 12 11 13 13 12 12 14 12 12
5 3 4 3 3 2 3 7 11 20 22 7 8 12 6 5 11 13 17 17 14 14 15 15 15 15 15 15 14 14 12 11 10 11 11 11 8 9 11 13 12 12 13 12 12 12 13 13 13
3 2 6 3 2 5 5 9 12 3 18 14 20 10 10 8 13 15 17 16 13 15 15 15 16 16 16 16 14 13 12 12 10 11 11 10 7 12 14 13 13 12 12 10 9 11 12 12 11
6 2 4 3 1 4 10 18 19 4 8 17 15 6 7 13 17 19 14 13 12 10 13 16 17 17 16 15 13 12 12 11 11 11 11 11 9 14 12 13 13 12 10 10 8 9 11 10 8
6 4 3 2 4 3 10 18 12 5 24 23 20 14 7 19 20 18 14 11 7 11 14 16 17 18 17 15 13 13 11 9 9 11 12 12 15 14 14 13 11 10 10 9 9 9 9 8 10
4 3 2 5 1 2 6 14 15 19 20 9 21 7 17 19 20 15 12 11 10 10 12 14 15 16 18 17 16 14 12 9 9 13 15 16 20 14 14 13 12 12 11 10 10 9 6 7 10
8 4 6 5 6 3 8 6 25 25 7 27 21 8 13 26 23 18 14 12 12 10 13 15 13 14 15 17 18 16 16 11 11 17 18 20 18 13 13 14 13 12 12 11 10 9 7 3 5
8 3 3 7 11 7 22 6 15 19 28 12 5 29 31 30 24 21 16 13 12 14 14 13 12 12 11 13 15 18 17 13 11 21 23 20 16 14 13 14 14 12 12 11 7 9 7 9 2
4 3 8 8 6 6 4 6 8 18 21 23 28 29 31 30 26 22 20 18 14 15 16 14 10 9 11 11 16 18 15 13 20 24 23 17 14 14 12 13 11 11 12 9 5 11 12 4 8
6 3 4 6 15 7 3 11 16 24 14 35 35 36 34 32 26 21 20 17 14 14 14 14 12 13 12 14 16 17 17 17 25 21 16 15 13 13 12 13 13 11 10 8 3 9 7 5 7
1 2 3 6 7 3 4 6 11 7 21 32 38 37 37 30 26 21 21 19 15 14 14 14 15 18 20 20 19 16 16 24 18 14 19 18 17 15 13 15 13 10 5 4 3 3 6 1 8
8 5 6 11 16 11 12 6 4 14 24 28 33 37 35 28 25 20 18 19 16 15 16 14 16 17 17 18 20 20 21 20 17 18 14 11 9 9 8 7 5 3 4 7 1 4 6 3 7
6 12 5 11 12 6 9 5 4 10 11 23 32 36 33 27 26 23 21 19 17 15 14 14 13 13 14 14 18 20 21 20 15 12 9 5 6 4 4 5 2 1 2 4 2 8 3 6 4
21 6 3 6 4 5 22 5 5 1 2 19 18 23 29 27 28 25 19 18 16 13 11 9 12 12 11 14 16 19 19 17 15 10 8 8 7 4 7 4 1 5 2 6 6 7 10 5 8
4 3 2 4 7 8 1 4 8 6 7 10 6 16 31 28 30 25 22 17 19 16 11 9 13 12 15 15 15 14 12 10 8 9 6 4 6 10 10 7 6 6 4 3 8 12 8 11 14
2 2 4 3 12 5 4 5 20 19 10 12 13 29 29 32 32 29 25 21 17 15 12 12 13 13 15 16 14 11 10 10 8 3 8 12 9 7 6 3 5 7 1 4 5 8 6 9 8
6 3 4 1 8 5 5 6 10 22 19 15 7 19 24 33 37 29 27 21 18 15 14 16 13 13 16 16 12 13 11 9 8 3 14 12 13 9 6 5 6 6 3 4 7 4 4 6 6
9 8 4 4 7 6 7 3 6 17 18 17 14 11 18 35 33 31 27 22 20 18 20 19 18 15 13 14 13 18 15 10 9 10 8 10 11 10 9 6 9 6 2 3 4 2 4 9 11
6 9 6 13 7 4 6 5 3 15 22 24 26 19 16 27 31 33 31 25 25 21 21 21 21 18 13 15 16 18 15 12 11 10 9 7 7 9 9 6 10 7 2 3 3 4 1 5 10
5 9 10 4 10 2 4 5 5 7 14 19 21 22 21 34 34 30 33 30 29 23 26 22 24 18 15 15 18 16 19 17 13 12 10 9 10 11 10 8 7 10 6 3 2 1 2 0 1
6 18 15 14 12 5 9 4 6 6 6 12 20 22 22 40 33 28 35 31 31 27 25 24 24 20 19 18 20 19 21 20 15 16 12 11 8 13 15 14 9 8 6 5 7 4 6 7 9
11 12 18 20 13 4 5 1 7 4 6 8 19 22 31 38 37 30 32 30 29 28 29 27 26 23 21 21 21 20 19 23 20 18 16 13 11 13 16 16 14 10 9 11 8 5 4 3 2
4 5 8 5 3 2 6 6 5 5 14 9 18 23 34 38 37 34 32 25 31 22 30 31 30 26 23 23 23 22 22 20 22 20 18 14 9 12 16 15 14 15 12 11 15 9 5 2 2
5 6 3 3 4 5 3 4 8 7 6 14 22 26 37 39 37 36 33 30 34 24 27 30 31 30 24 24 24 24 20 17 22 19 20 19 15 12 15 16 15 15 14 13 12 11 8 6 4
5 9 6 6 4 4 4 1 5 7 19 16 17 28 36 43 41 39 34 34 32 34 28 29 34 32 26 25 26 25 20 18 19 21 21 21 18 13 10 16 12 14 14 15 16 13 10 9 8
3 3 6 7 1 3 5 6 5 5 4 6 12 29 31 34 40 41 39 34 27 33 29 31 33 33 30 26 28 26 23 21 20 21 19 19 20 16 15 16 15 12 13 12 12 14 15 13 10
8 6 3 3 4 3 4 3 5 6 8 7 8 18 24 28 34 38 34 37 29 21 33 33 39 33 31 27 28 27 28 24 22 21 21 21 18 16 16 16 18 19 15 13 12 12 13 15 13
2 2 3 5 6 5 3 6 7 9 12 7 12 24 28 29 31 31 35 40 35 23 21 30 35 34 29 29 27 26 26 26 27 24 24 24 20 21 20 22 22 23 19 16 13 13 14 16 14
8 8 6 4 3 2 4 4 7 8 9 17 21 22 21 25 26 31 34 37 39 35 26 28 32 34 34 28 25 26 27 26 26 30 27 28 25 23 19 16 20 21 21 16 14 14 13 16 16
Wind_Direction
167 94 86 74 58 52 329 281 152 124 59 71 84 93 95 49 45 161 145 148 154 157 157 155 154 152 155 153 151 149 143 136 133 131 128 125 122 128 138 130 124 105 113 111 110 113 116 119 128
194 205 70 74 62 47 322 333 92 95 122 102 83 78 54 63 87 122 159 168 159 164 163 160 155 152 156 158 160 157 157 152 144 136 128 121 125 120 116 120 126 119 110 107 109 113 117 129 136
139 144 68 77 74 41 287 352 102 110 134 114 103 70 69 89 130 142 152 157 165 169 165 168 161 158 155 157 159 161 161 161 161 149 140 134 135 102 125 134 123 121 112 115 107 108 114 129 141
45 78 74 57 153 223 252 304 299 153 91 73 113 73 72 130 144 142 151 166 157 151 167 171 169 163 160 160 158 159 162 162 172 169 152 147 147 118 121 126 124 121 115 106 101 101 111 134 143
27 311 73 76 223 274 287 277 310 143 87 101 99 95 80 120 137 144 152 158 163 176 188 186 182 181 176 171 168 169 172 168 175 175 159 154 148 132 132 128 125 116 109 102 98 86 95 118 126
16 74 67 168 184 228 294 291 300 222 105 106 98 102 97 135 139 144 149 154 143 168 177 183 190 196 196 193 188 181 176 177 186 174 162 158 147 138 135 131 123 115 110 103 88 85 94 121 163
159 76 345 98 140 267 265 264 264 140 139 126 131 105 137 151 148 144 139 127 132 146 168 172 172 189 198 197 193 190 186 178 165 157 163 159 143 136 140 129 117 120 119 101 85 88 110 133 154
137 127 158 141 187 259 238 267 185 150 113 142 119 153 163 158 152 151 130 126 121 127 156 161 168 172 180 184 191 191 183 161 148 160 155 147 143 139 140 130 123 123 111 102 100 112 100 79 165
155 75 162 163 156 217 219 264 180 150 138 153 186 150 150 156 160 151 138 130 131 111 128 140 147 149 164 171 178 178 178 154 158 164 147 148 145 140 136 127 124 122 120 115 131 96 85 37 151
115 163 197 192 185 202 227 243 321 137 146 108 122 142 150 159 160 155 151 140 134 123 126 129 126 146 161 167 168 169 166 154 153 147 143 151 142 134 138 127 126 128 131 128 110 82 47 231 336
188 203 161 207 198 215 312 37 70 125 138 144 146 156 161 162 164 156 157 150 133 121 135 128 118 118 138 156 155 166 158 149 152 144 128 128 130 126 124 126 124 131 122 114 68 64 100 96 81
321 298 353 121 169 136 355 70 73 125 135 156 154 160 163 166 165 161 154 156 141 143 134 141 131 120 121 134 131 134 145 142 138 130 115 114 109 107 113 115 122 132 131 116 188 293 11 93 99
17 96 51 90 119 108 94 83 106 128 148 163 158 161 169 170 164 163 153 147 135 143 138 128 143 143 137 132 129 124 133 139 113 119 109 107 100 96 106 126 130 151 138 89 6 89 184 87 79
311 96 71 96 127 127 81 351 346 99 139 165 169 170 171 173 170 168 167 157 149 146 149 153 153 131 153 143 142 128 129 133 127 121 117 125 128 110 127 146 123 62 109 29 57 319 54 67 101
53 53 9 92 131 112 126 16 332 177 193 169 172 169 181 185 177 175 171 166 160 158 154 167 168 164 165 153 158 140 141 138 134 136 141 130 146 170 157 188 204 283 259 26 21 355 18 13 60
60 94 287 213 182 193 37 178 216 203 215 209 247 177 169 185 184 182 177 175 173 172 166 182 175 161 151 152 156 156 159 150 140 132 168 170 179 166 172 203 169 120 153 11 15 41 61 56 119
110 146 231 163 210 162 191 172 213 207 213 287 295 166 169 176 190 187 180 182 186 184 168 164 171 181 163 155 166 175 167 172 165 171 193 218 205 211 207 190 166 151 110 25 14 42 53 58 77
160 148 254 164 188 174 205 222 184 206 209 236 163 180 177 177 185 187 183 189 191 182 179 173 174 185 178 172 169 178 173 178 185 134 175 203 220 211 190 196 185 152 40 65 83 62 79 58 75
143 134 169 338 210 159 200 188 201 204 214 219 191 174 193 183 178 186 190 191 190 183 183 185 183 184 203 196 181 179 186 192 202 191 180 194 206 202 180 161 192 168 91 135 69 58 71 57 63
123 140 184 181 196 114 213 215 238 209 210 215 200 206 167 180 184 187 190 193 193 193 198 198 197 195 206 215 197 189 187 190 198 203 202 201 228 228 203 201 176 197 218 203 64 353 276 63 51
136 181 191 172 161 73 124 295 239 209 233 216 216 209 179 178 173 181 188 188 193 197 199 210 201 203 209 210 200 205 189 195 207 206 212 238 240 222 208 225 204 200 197 178 187 263 65 83 22
169 207 190 164 145 212 189 246 258 213 215 228 231 210 184 179 175 184 184 192 197 201 209 216 212 218 216 204 204 202 203 206 205 218 234 239 246 215 210 220 218 215 231 200 200 217 111 81 73
224 153 205 171 175 124 210 59 269 124 235 231 227 204 198 189 186 191 194 191 198 206 208 218 222 222 220 223 221 217 218 212 219 219 226 236 231 215 202 216 221 211 219 216 191 186 134 123 96
241 120 54 119 140 9 229 164 275 206 226 205 223 207 199 194 199 203 202 212 203 207 210 216 222 226 223 228 226 228 222 220 218 217 222 223 214 212 205 212 214 215 219 208 213 201 197 182 262
107 65 13 8 7 221 172 173 232 221 188 204 207 200 198 200 196 198 206 206 203 213 214 217 219 229 227 225 225 223 223 222 219 223 231 232 227 216 211 212 221 219 220 213 217 217 214 200 211
189 148 155 196 195 268 50 280 260 239 188 207 194 187 191 202 207 206 212 210 214 218 217 210 225 228 231 228 218 222 225 224 233 232 235 230 232 225 212 224 228 225 229 234 240 242 236 230 204
219 142 193 103 318 77 318 309 298 15 293 124 147 180 182 200 213 213 207 209 210 208 209 215 220 228 231 232 221 222 224 222 224 219 222 221 237 236 228 224 222 224 231 231 243 250 246 233 209
153 169 69 27 140 147 300 268 239 284 254 247 170 178 186 200 206 212 209 207 208 218 227 230 227 229 228 232 223 223 229 230 224 222 219 227 232 241 246 240 232 228 224 234 246 244 237 220 216
303 225 79 122 126 146 187 262 216 218 206 179 170 179 182 191 203 214 218 214 209 204 231 211 218 224 226 228 231 226 229 232 234 226 220 228 238 246 254 255 259 241 231 227 238 236 225 221 222
180 198 136 128 220 103 157 263 292 158 144 153 177 180 187 196 197 213 220 219 220 217 231 215 226 231 237 232 235 232 233 231 233 233 225 229 237 242 248 246 247 247 242 228 224 235 233 238 233